COSMOS 2251 DEB, 34784

Orbit data source: Space-Track

COSMOS 2251 DEB, 34784 is space debris in LEO originally from a launch on Wed, 16 Jun 1993 UTC launched from the Plesetsk Missile And Space Complex (PKMTR). The debris from Iridium 33, an American commercial communications satellite, has been tracked extensively since its accidental collision with the defunct Russian satellite Cosmos 2251 in 2009. This event, occurring at high speed in low Earth orbit (LEO), generated thousands of pieces of space debris, significantly increasing the risk of further collisions. The Iridium 33 debris cloud has impacted space traffic management and orbital debris mitigation strategies, making it a subject of ongoing study in space situational awareness.

Loading next visibility...
COSMOS 2251 DEB details
Identifier
34784, 1993-036AAM
Orbit
LEO
Last TLE update11 hours ago
Origin
Flag of CISKVR (CIS)
ManufacturerUnknown
MissionSpacecraft
Bus & MotorUnknown
MassUnknown
Launch date (UTC)
1993-06-16 (31 years ago)
Launch vehicleUnknown
Launch site
Plesetsk Missile And Space Complex (PKMTR)
Object type
Payload
Rocket body
Debris
Shape & HBRUnknown
Radar Cross SectionSmall (<0.1 m²)

Expand to show TLE details & history

TLE from 11 hours ago
0 COSMOS 2251 DEB
1 34784U 93036AAM 24346.87623988  .00003991  00000-0  85609-3 0  9990
2 34784  74.0075 303.2632 0054049 203.3002 156.5713 14.58073274831979
Epoch: 2024-12-11T21:01Z
Definitive object data (Epoch: 2024-12-11T21:01:47.125Z)
Latitude-0.00001°
Longitude-93.24779°
Altitude737.176 km
Speed7.468 km/s
True Right ascension20h 13m 03s
True Declination0° 00' 00"
Sunlit
Object was in daylight at TLE epoch
Visualization TLE readout
Latitude-17.45317°
Longitude91.03791°
Altitude667.744 km
Speed7.543 km/s
Apparent Right ascension11h 33m 23s
Apparent Declination-58° 17' 35"
Sunlit
Object is in full shadow
Visualization observer readout
Local Sidereal Time06:14:31
Azimuth144.036° SSE
Elevation-28.29°
Doppler factor1
Orbital elements
Apogee altitude735.244 km
Perigee altitude658.764 km
Semi-major axis7,075.141 km
Eccentricity0.0054049
Inclination74.0075°
RAAN303.2632°
Arg. of periapsis203.3002°
True anomaly156.81604°
Mean anomaly156.5713°
Eccentric anomaly156.69382°
Mean motion3.64704 °/min
BSTAR0.00085609
Orbital period98.71 mins
Loading maneuver chart data...

COSMOS 2251 DEB Visibility forecast

Observer location: undefined°, undefined

Span
Click to sort rows by Start time (UTC) header in descending order
Start Az.
Max El. time (UTC)
Max El. Az.
Max El.
End time (UTC)
End Az.
8 mins2024-12-12 09:07:58.120Z328.144° NNW2024-12-12 09:11:58.120Z249.428° W37.883°2024-12-12 09:15:58.120Z182.002° SSW
7 mins2024-12-12 21:51:58.120Z158.183° S2024-12-12 21:54:58.120Z98.831° ESE31.994°2024-12-12 21:58:58.120Z37.456° NE
6 mins2024-12-12 23:32:58.120Z258.642° W2024-12-12 23:35:58.120Z306.893° NW22.011°2024-12-12 23:38:58.120Z347.97° N
|